Date,TemperatureHighF,TemperatureAvgF,TemperatureLowF,DewpointHighF,DewpointAvgF,DewpointLowF,HumidityHigh,HumidityAvg,HumidityLow,PressureMaxIn,PressureMinIn,WindSpeedMaxMPH,WindSpeedAvgMPH,GustSpeedMaxMPH,PrecipitationSumIn
2013-6-1,89,79,75,76,72,0,86,79,56,29.94,29.86,10,0,10,0.18
2013-6-2,97,82,73,82,70,66,90,70,41,29.92,29.83,13,0,13,0.12
2013-6-3,93,83,74,74,70,64,85,66,41,29.95,29.82,9,0,9,0.12
2013-6-4,90,81,75,74,70,64,83,70,43,29.96,29.87,8,0,8,0.06
2013-6-5,87,82,79,74,72,69,80,71,60,29.93,29.80,11,1,11,0.04
2013-6-6,93,82,77,77,72,66,85,71,48,29.83,29.69,18,2,18,0.67
2013-6-7,93,80,75,76,70,66,86,73,48,29.92,29.75,12,0,12,0.41
2013-6-8,94,82,75,76,72,68,89,72,48,30.01,29.87,12,0,12,0.08
2013-6-9,92,85,80,74,70,66,74,61,46,30.02,29.94,16,2,19,0.00
2013-6-10,92,86,80,73,70,68,74,62,47,30.00,29.92,114,1,114,0.00
2013-6-11,94,85,80,77,72,66,80,65,40,30.01,29.91,12,0,114,0.08
2013-6-12,95,82,77,88,72,66,80,70,42,29.99,29.92,7,0,7,0.08
2013-6-13,95,83,75,84,69,63,86,66,39,29.97,29.85,6,0,6,0.08
2013-6-14,100,85,75,76,68,62,83,59,33,29.89,29.80,11,0,11,0.26
2013-6-15,98,85,76,77,69,61,84,60,32,29.97,29.84,8,0,8,0.06
2013-6-16,95,85,76,76,69,65,82,61,39,30.00,29.92,10,1,10,0.02
2013-6-17,102,88,78,76,69,65,77,55,36,29.99,29.92,13,1,13,0.00
2013-6-18,101,88,79,77,69,64,78,55,35,29.99,29.89,114,1,114,0.00
2013-6-19,97,88,80,76,69,64,78,56,36,29.96,29.89,12,1,12,0.00
2013-6-20,95,82,79,100,86,60,100,82,40,30.01,29.93,114,65,114,0.18
2013-6-21,96,86,78,78,68,62,81,57,36,30.03,29.94,11,1,11,0.04
2013-6-22,96,87,78,74,68,63,75,55,39,30.01,29.95,12,2,12,0.00
2013-6-23,96,86,79,80,67,62,69,55,41,30.04,29.96,14,2,14,0.20
2013-6-24,93,85,79,76,69,65,74,58,43,30.08,29.99,14,2,14,0.06
2013-6-25,94,86,79,75,70,66,76,59,44,30.04,29.95,14,1,14,0.06
2013-6-26,94,86,79,80,70,64,73,59,40,29.99,29.92,11,1,11,0.02
2013-6-27,94,85,79,83,70,65,100,61,45,29.97,29.87,7,0,7,0.02
2013-6-28,103,86,76,94,70,61,80,62,36,29.92,29.77,13,0,13,0.69
2013-6-29,97,84,76,82,71,61,84,67,35,29.83,29.75,11,0,13,0.80
2013-6-30,96,84,77,78,69,58,81,62,41,29.86,29.76,13,0,13,0.26